Location: ???????
(55.5931°N, 39.3286°E)
Time: 13:03:19
(UTC+00:00)

SL-16 R/B - Pass Details

Date: 14 April 2024
Orbit: 985 x 1006 km, 99.7° (Epoch: 23 May)

Event Time Altitude Azimuth Distance (km) Brightness Sun altitude
Exits shadow 00:51:36 11° 204° (SSW) 2,696 4.3 -11.9°
Maximum altitude 00:56:57 33° 266° (W) 1,609 3.2 -11.2°
Drops below altitude 10° 01:02:31 10° 329° (NNW) 2,780 4.9 -10.6°
Sets 01:05:18 0° 339° (NNW) 3,738 5.7 -10.3°
